Location: Pella
(41.4080°N, 92.9160°W)
Time: 18:54:50
(UTC-05:00)

ATLAS 5 CENTAUR R/B - Visible Passes

Search period start: 22 October 2014 00:00
Search period end: 01 November 2014 00:00
Orbit: 362 x 365 km, 35.7° (Epoch: 22 October)

Date Brightness Start Highest point End Pass type
(mag) Time Alt. Az. Time Alt. Az. Time Alt. Az.
22 Oct 3.5 05:27:04 18° SE 05:27:04 18° SE 05:28:16 10° ESE visible
22 Oct 2.7 06:59:33 10° WSW 07:02:04 24° S 07:04:34 10° SE visible
23 Oct 2.5 05:55:11 26° S 05:55:11 26° S 05:57:40 10° ESE visible
24 Oct 2.8 06:23:01 17° SW 06:24:04 21° SSW 06:26:24 10° SE visible
25 Oct 4.2 05:18:51 11° SE 05:18:51 11° SE 05:19:02 10° SE visible
25 Oct 3.4 06:51:21 10° SW 06:52:39 12° SSW 06:53:58 10° S visible
26 Oct 3.5 05:46:08 14° SSE 05:46:08 14° SSE 05:46:57 10° SSE visible
